Location: Unspecified
(0.0000°N, 0.0000°E)
Time: 01:46:19
(UTC+00:00)

Altair - All Passes

Search period start: 22 February 2017 00:00
Search period end: 04 March 2017 00:00
Orbit: 1501 x 1683 km, 47.2° (Epoch: 20 February)

Date Brightness Start Highest point End Pass type
(mag) Time Alt. Az. Time Alt. Az. Time Alt. Az.
22 Feb - 06:11:37 10° SSE 06:15:58 14° SE 06:20:19 10° ESE daylight
22 Feb - 08:11:36 10° SW 08:20:49 81° SE 08:30:15 10° NE daylight
22 Feb - 10:19:19 10° W 10:25:36 20° NW 10:32:03 10° N daylight
22 Feb - 18:57:20 10° NNW 19:06:22 36° NE 19:15:13 10° ESE visible
22 Feb - 21:01:24 10° WNW 21:11:04 51° SW 21:20:30 10° SSE visible
23 Feb - 05:47:40 10° SSE 05:50:43 12° SE 05:53:46 10° ESE visible
23 Feb - 07:46:31 10° SSW 07:55:41 72° SE 08:05:03 10° NE daylight
23 Feb - 09:53:35 10° W 10:00:23 23° NW 10:07:22 10° N daylight
23 Feb - 18:32:26 10° N 18:41:09 32° NE 18:49:42 10° ESE visible
23 Feb - 20:36:02 10° NW 20:45:53 57° SW 20:55:30 10° SSE visible
24 Feb - 07:21:29 10° SSW 07:30:33 65° SE 07:39:47 10° NE daylight
24 Feb - 09:27:55 10° W 09:35:10 26° NW 09:42:36 10° N daylight
24 Feb - 18:07:34 10° N 18:15:54 29° NE 18:24:08 10° ESE daylight
24 Feb - 20:10:43 10° NW 20:20:42 64° SW 20:30:29 10° SSE visible
24 Feb - 22:23:57 10° WSW 22:26:00 11° SW 22:28:03 10° SSW visible
25 Feb - 06:56:28 10° SSW 07:05:26 57° SE 07:14:31 10° NE daylight
25 Feb - 09:02:22 10° WSW 09:09:58 29° NW 09:17:48 10° N daylight
25 Feb - 17:42:46 10° N 17:50:40 26° NE 17:58:28 10° E daylight
25 Feb - 19:45:26 10° NW 19:55:31 71° SW 20:05:25 10° SSE visible
25 Feb - 21:56:44 10° WSW 22:00:42 13° SW 22:04:38 10° SSW visible
26 Feb - 06:31:29 10° SSW 06:40:18 51° SE 06:49:12 10° ENE daylight
26 Feb - 08:36:51 10° WSW 08:44:48 33° NW 08:52:57 10° NNE daylight
26 Feb - 17:18:01 10° N 17:25:25 23° NE 17:32:44 10° E daylight
26 Feb - 19:20:11 10° NW 19:30:20 79° SW 19:40:19 10° SE visible
26 Feb - 21:30:15 10° WSW 21:35:24 15° SW 21:40:32 10° SSW visible
27 Feb - 06:06:32 10° SSW 06:15:10 45° SE 06:23:51 10° ENE daylight
27 Feb - 08:11:24 10° WSW 08:19:38 37° NW 08:28:03 10° NNE daylight
27 Feb - 16:53:21 10° N 17:00:09 20° NE 17:06:53 10° E daylight
27 Feb - 18:54:57 10° NW 19:05:09 87° SW 19:15:11 10° SE visible
27 Feb - 21:04:04 10° W 21:10:08 17° SW 21:16:09 10° S visible
28 Feb - 05:41:37 10° SSW 05:50:01 40° SE 05:58:27 10° ENE visible
28 Feb - 07:46:01 10° WSW 07:54:28 42° NW 08:03:06 10° NNE daylight
28 Feb - 16:28:47 10° N 16:34:52 17° NE 16:40:54 10° E daylight
28 Feb - 18:29:46 10° NW 18:39:59 85° NE 18:50:02 10° SE visible
28 Feb - 20:38:05 10° W 20:44:52 20° SW 20:51:37 10° S visible
01 Mar - 05:16:43 10° SSW 05:24:52 35° SE 05:33:01 10° ENE visible
01 Mar - 07:20:40 10° WSW 07:29:19 47° NW 07:38:09 10° NNE daylight
01 Mar - 16:04:23 10° NNE 16:09:34 15° NE 16:14:44 10° ENE daylight
01 Mar - 18:04:37 10° NW 18:14:47 77° NE 18:24:50 10° SE daylight
01 Mar - 20:12:13 10° W 20:19:37 23° SW 20:26:58 10° S visible
02 Mar - 04:51:53 10° S 04:59:43 31° SE 05:07:31 10° ENE visible
02 Mar - 06:55:21 10° SW 07:04:10 53° NW 07:13:10 10° NNE daylight
02 Mar - 15:40:14 10° NNE 15:44:16 13° NE 15:48:17 10° ENE daylight
02 Mar - 17:39:30 10° NNW 17:49:36 70° NE 17:59:36 10° SE daylight
02 Mar - 19:46:27 10° W 19:54:23 26° SW 20:02:15 10° S visible
03 Mar - 04:27:04 10° S 04:34:33 28° SE 04:41:58 10° ENE visible
03 Mar - 06:30:05 10° SW 06:39:02 59° NW 06:48:08 10° NNE daylight
03 Mar - 15:16:45 10° NNE 15:18:56 11° NE 15:21:07 10° ENE daylight
03 Mar - 17:14:25 10° NNW 17:24:24 63° NE 17:34:20 10° SE daylight
03 Mar - 19:20:47 10° WNW 19:29:09 29° SW 19:37:27 10° S visible
